Location: Boiro
(42.6475°N, 8.8834°W)
Time: 00:47:44
(UTC+01:00)

S-56A Canister/Altair - Pass Details

Date: 09 December 2021
Orbit: 634 x 2499 km, 38.9° (Epoch: 26 January)

Event Time Altitude Azimuth Distance (km) Brightness Sun altitude
Rises 20:43:12 0° 193° (SSW) 6,148 12.4 -28.8°
Reaches altitude 10° 20:48:57 10° 179° (S) 5,033 11.7 -29.8°
Enters shadow 20:57:05 20° 144° (SE) 3,964 10.8 -31.3°
